Champion — WCZ7631 — position and weather

sailwx.info

Track history (hours):
 
Tides and Currents Weather Stations Pressure Air Temp Water Temp Dewpoint Dewpoint Depression Visibility Wind Speed Wind Dir Waves Ship Positions

Champion

Owner: MC CULLEY MARINE SERVICES INC, FORT PIERCE, FL. More information available from US FCC via Universal Licensing System and Coast Guard Vessel Documentation Center.

Last reported at 2015-Aug-04 22:10 UTC. Time now 2015-Sep-01 01:51 UTC.
Position N 27°05' W 080°04'.
Warning: this ship's position is 27 days out of date.

Length 20 m; draft 1.7 m.

Type: Towing. MMSI: 367005250.

Date/timePositionNaut miles runAvg speedWind from/ knotsBaromVisibWave heightAir tempDewpointWater temp
2015-Aug-04 22:10N 27°05' W 080°04'5 7.6
2015-Aug-04 21:33N 27°01' W 080°02'9 8.8
2015-Aug-04 20:33N 26°52' W 079°60'1410.2
2015-Aug-04 19:13N 26°38' W 079°60'6 9.7
2015-Aug-04 18:33N 26°32' W 080°00'9 9.5
2015-Aug-04 17:33N 26°23' W 080°01'9 9.5
2015-Aug-04 16:33N 26°13' W 080°02'8 7.9
2015-Aug-04 15:33N 26°06' W 080°05'2 1.8
2015-Aug-04 14:33N 26°05' W 080°07'0 0.0
2015-Aug-04 13:33N 26°05' W 080°07'0 0.0
2015-Aug-04 12:33N 26°05' W 080°07'0 0.0
2015-Aug-04 11:33N 26°05' W 080°07'0 0.0
2015-Aug-04 10:33N 26°05' W 080°07'0 0.0
2015-Aug-04 09:33N 26°05' W 080°07'0 0.0
2015-Aug-04 08:33N 26°05' W 080°07'0 0.0
2015-Aug-04 07:33N 26°05' W 080°07'0 0.0
2015-Aug-04 06:33N 26°05' W 080°07'0 0.0
2015-Aug-04 05:33N 26°05' W 080°07'0 0.0
2015-Aug-04 04:33N 26°05' W 080°07'0 0.0
2015-Aug-04 03:33N 26°05' W 080°07'0 0.0
2015-Aug-04 02:33N 26°05' W 080°07'0 0.0
2015-Aug-04 01:33N 26°05' W 080°07'0 0.0
2015-Aug-04 00:33N 26°05' W 080°07'0 0.2
2015-Aug-03 23:33N 26°05' W 080°07'0 0.0
2015-Aug-03 22:33N 26°05' W 080°07'0 0.0
2015-Aug-03 21:33N 26°05' W 080°07'0 0.0
2015-Aug-03 20:33N 26°05' W 080°07'0 0.0
2015-Aug-03 19:33N 26°05' W 080°07'0 0.0
2015-Aug-03 18:33N 26°05' W 080°07'0 0.0
2015-Aug-03 17:33N 26°05' W 080°07'0 0.0
2015-Aug-03 16:33N 26°05' W 080°07'0 0.0
2015-Aug-03 15:33N 26°05' W 080°07'0 0.0
2015-Aug-03 14:33N 26°05' W 080°07'0 0.0
2015-Aug-03 13:33N 26°05' W 080°07'0 0.0
2015-Aug-03 12:33N 26°05' W 080°07'0 0.0
2015-Aug-03 11:33N 26°05' W 080°07'0 0.0
2015-Aug-03 10:26N 26°05' W 080°07'0 0.0
2015-Aug-03 06:26N 26°05' W 080°07'0 0.0
2015-Aug-03 05:33N 26°05' W 080°07'0 0.0
2015-Aug-03 04:33N 26°05' W 080°07'0 0.0
2015-Aug-03 03:33N 26°05' W 080°07'0 0.0
2015-Aug-03 02:33N 26°05' W 080°07'0 0.0
2015-Aug-03 01:33N 26°05' W 080°07'0 0.0
2015-Aug-03 00:33N 26°05' W 080°07'0 0.0
2015-Aug-02 23:33N 26°05' W 080°07'0 0.2
2015-Aug-02 22:33N 26°05' W 080°07'2 2.0
2015-Aug-02 21:33N 26°06' W 080°05'2 1.7
2015-Aug-02 20:33N 26°05' W 080°03'1 0.5
2015-Aug-02 19:33N 26°05' W 080°03'0 0.3
2015-Aug-02 18:33N 26°04' W 080°04'2 2.3
2015-Aug-02 17:33N 26°04' W 080°01'5 5.0
2015-Aug-02 16:33N 26°02' W 079°56'5 4.9
2015-Aug-02 15:33N 26°01' W 079°51'5 5.0
2015-Aug-02 14:33N 25°59' W 079°45'6 6.0
2015-Aug-02 13:33N 25°57' W 079°39'  
2015-Jul-30 10:15N 26°49' W 080°00'4 5.5
2015-Jul-30 09:33N 26°52' W 080°02'6 5.8
2015-Jul-30 08:33N 26°58' W 080°04'6 6.1
2015-Jul-30 07:33N 27°04' W 080°06'2 0.1
2015-Jul-28 23:33N 27°03' W 080°03'6 6.1
2015-Jul-28 22:33N 26°57' W 080°00'24 8.0
2015-Jul-28 19:33N 26°33' W 079°60'8 7.5
2015-Jul-28 18:33N 26°26' W 080°01'6 5.8
2015-Jul-28 17:33N 26°20' W 080°02'2 1.8
2015-Jul-28 16:33N 26°19' W 080°04'0 0.0
2015-Jul-28 15:33N 26°19' W 080°04'0 0.0
2015-Jul-28 14:33N 26°19' W 080°04'0 0.0
2015-Jul-28 13:33N 26°19' W 080°04'0 0.1
2015-Jul-28 12:33N 26°19' W 080°04'  
Track history (hours):
 
Tides and Currents Weather Stations Pressure Air Temp Water Temp Dewpoint Dewpoint Depression Visibility Wind Speed Wind Dir Waves Ship Positions

Champion

Owner: MC CULLEY MARINE SERVICES INC, FORT PIERCE, FL. More information available from US FCC via Universal Licensing System and Coast Guard Vessel Documentation Center.

Last reported at 2015-Aug-04 22:10 UTC. Time now 2015-Sep-01 01:51 UTC.
Position N 27°05' W 080°04'.
Warning: this ship's position is 27 days out of date.

Length 20 m; draft 1.7 m.

Type: Towing. MMSI: 367005250.

Date/timePositionNaut miles runAvg speedWind from/ knotsBaromVisibWave heightAir tempDewpointWater temp
2015-Aug-04 22:10N 27°05' W 080°04'5 7.6
2015-Aug-04 21:33N 27°01' W 080°02'9 8.8
2015-Aug-04 20:33N 26°52' W 079°60'1410.2
2015-Aug-04 19:13N 26°38' W 079°60'6 9.7
2015-Aug-04 18:33N 26°32' W 080°00'9 9.5
2015-Aug-04 17:33N 26°23' W 080°01'9 9.5
2015-Aug-04 16:33N 26°13' W 080°02'8 7.9
2015-Aug-04 15:33N 26°06' W 080°05'2 1.8
2015-Aug-04 14:33N 26°05' W 080°07'0 0.0
2015-Aug-04 13:33N 26°05' W 080°07'0 0.0
2015-Aug-04 12:33N 26°05' W 080°07'0 0.0
2015-Aug-04 11:33N 26°05' W 080°07'0 0.0
2015-Aug-04 10:33N 26°05' W 080°07'0 0.0
2015-Aug-04 09:33N 26°05' W 080°07'0 0.0
2015-Aug-04 08:33N 26°05' W 080°07'0 0.0
2015-Aug-04 07:33N 26°05' W 080°07'0 0.0
2015-Aug-04 06:33N 26°05' W 080°07'0 0.0
2015-Aug-04 05:33N 26°05' W 080°07'0 0.0
2015-Aug-04 04:33N 26°05' W 080°07'0 0.0
2015-Aug-04 03:33N 26°05' W 080°07'0 0.0
2015-Aug-04 02:33N 26°05' W 080°07'0 0.0
2015-Aug-04 01:33N 26°05' W 080°07'0 0.0
2015-Aug-04 00:33N 26°05' W 080°07'0 0.2
2015-Aug-03 23:33N 26°05' W 080°07'0 0.0
2015-Aug-03 22:33N 26°05' W 080°07'0 0.0
2015-Aug-03 21:33N 26°05' W 080°07'0 0.0
2015-Aug-03 20:33N 26°05' W 080°07'0 0.0
2015-Aug-03 19:33N 26°05' W 080°07'0 0.0
2015-Aug-03 18:33N 26°05' W 080°07'0 0.0
2015-Aug-03 17:33N 26°05' W 080°07'0 0.0
2015-Aug-03 16:33N 26°05' W 080°07'0 0.0
2015-Aug-03 15:33N 26°05' W 080°07'0 0.0
2015-Aug-03 14:33N 26°05' W 080°07'0 0.0
2015-Aug-03 13:33N 26°05' W 080°07'0 0.0
2015-Aug-03 12:33N 26°05' W 080°07'0 0.0
2015-Aug-03 11:33N 26°05' W 080°07'0 0.0
2015-Aug-03 10:26N 26°05' W 080°07'0 0.0
2015-Aug-03 06:26N 26°05' W 080°07'0 0.0
2015-Aug-03 05:33N 26°05' W 080°07'0 0.0
2015-Aug-03 04:33N 26°05' W 080°07'0 0.0
2015-Aug-03 03:33N 26°05' W 080°07'0 0.0
2015-Aug-03 02:33N 26°05' W 080°07'0 0.0
2015-Aug-03 01:33N 26°05' W 080°07'0 0.0
2015-Aug-03 00:33N 26°05' W 080°07'0 0.0
2015-Aug-02 23:33N 26°05' W 080°07'0 0.2
2015-Aug-02 22:33N 26°05' W 080°07'2 2.0
2015-Aug-02 21:33N 26°06' W 080°05'2 1.7
2015-Aug-02 20:33N 26°05' W 080°03'1 0.5
2015-Aug-02 19:33N 26°05' W 080°03'0 0.3
2015-Aug-02 18:33N 26°04' W 080°04'2 2.3
2015-Aug-02 17:33N 26°04' W 080°01'5 5.0
2015-Aug-02 16:33N 26°02' W 079°56'5 4.9
2015-Aug-02 15:33N 26°01' W 079°51'5 5.0
2015-Aug-02 14:33N 25°59' W 079°45'6 6.0
2015-Aug-02 13:33N 25°57' W 079°39'  
2015-Jul-30 10:15N 26°49' W 080°00'4 5.5
2015-Jul-30 09:33N 26°52' W 080°02'6 5.8
2015-Jul-30 08:33N 26°58' W 080°04'6 6.1
2015-Jul-30 07:33N 27°04' W 080°06'2 0.1
2015-Jul-28 23:33N 27°03' W 080°03'6 6.1
2015-Jul-28 22:33N 26°57' W 080°00'24 8.0
2015-Jul-28 19:33N 26°33' W 079°60'8 7.5
2015-Jul-28 18:33N 26°26' W 080°01'6 5.8
2015-Jul-28 17:33N 26°20' W 080°02'2 1.8
2015-Jul-28 16:33N 26°19' W 080°04'0 0.0
2015-Jul-28 15:33N 26°19' W 080°04'0 0.0
2015-Jul-28 14:33N 26°19' W 080°04'0 0.0
2015-Jul-28 13:33N 26°19' W 080°04'0 0.1
2015-Jul-28 12:33N 26°19' W 080°04'  

Dump ship's entire track history